Terminal Aerodrome Forecast
Issued by NWS Flagstaff, AZ

Home | Current Version | Previous Version | Text Only | Print | Product List | Glossary On
Versions: 1 2 3 4 5 6 7 8 9 10 11 12 13 14 15 16
000
FTUS45 KFGZ 260500
TAFINW
TAF
KINW 260526Z 2606/2706 29011KT P6SM SCT050 BKN070
     FM261000 VRB06KT P6SM SCT050=

USA.gov is the U.S. government's official web portal to all federal, state and local government web resources and services.